Location: Newark
(37.9800°N, 91.3000°W)
Time: 02:36:56
(UTC+00:00)

NOAA 19 - Pass Details

Date: 10 December 2019
Orbit: 840 x 862 km, 99.2° (Epoch: 23 January)

Event Time Altitude Azimuth Distance (km) Brightness Sun altitude
Rises 11:28:58 0° 18° (NNE) 3,440 8.4 -19.3°
Reaches altitude 10° 11:31:24 10° 22° (NNE) 2,497 7.7 -18.9°
Maximum altitude 11:36:52 58° 101° (ESE) 989 5.9 -17.8°
Drops below altitude 10° 11:42:15 10° 181° (S) 2,467 7.8 -16.8°
Sets 11:44:38 0° 185° (S) 3,396 8.5 -16.3°
